When you browse on this site, cookies collect data to enhance your experience and personalize the content and advertising you see.
Visit our Privacy Policy to learn more. By continuing to use the site, you agree to this use of cookies and data.
  • In Austria
  • List of Countries
  • For 7 days
  • Water Temperature
  • Satellite Maps
  • Weather Map
  • News
  • Weather Widgets
  • user-avatar
    Login

    Hourly Weather Mikashevichi

    Today, 19 July, Friday

    Time Temperature Precipitation Wind Pressure Humidity
    00:00 +13°C° 0 mm 3 mps 747 mmHg 95%
    01:00 +13°C° 0 mm 3 mps 747 mmHg 95%
    02:00 +13°C° 0 mm 3 mps 748 mmHg 96%
    03:00 +12°C° 0 mm 3 mps 748 mmHg 96%
    04:00 +12°C° 0 mm 3 mps 748 mmHg 96%
    05:00 +13°C° 0 mm 2 mps 748 mmHg 96%
    06:00 +13°C° 0 mm 3 mps 748 mmHg 92%
    07:00 +16°C° 0 mm 3 mps 749 mmHg 87%
    08:00 +18°C° 0 mm 3 mps 749 mmHg 82%
    09:00 +19°C° 0.2 mm 3 mps 749 mmHg 76%
    10:00 +21°C° 0.2 mm 4 mps 749 mmHg 71%
    11:00 +22°C° 0.2 mm 4 mps 749 mmHg 65%
    12:00 +22°C° 0.3 mm 4 mps 749 mmHg 63%
    13:00 +23°C° 0.3 mm 4 mps 749 mmHg 62%
    14:00 +24°C° 0.3 mm 3 mps 749 mmHg 60%
    15:00 +24°C° 0.4 mm 3 mps 749 mmHg 63%
    16:00 +24°C° 0.4 mm 3 mps 749 mmHg 66%
    17:00 +24°C° 0.4 mm 3 mps 749 mmHg 69%
    18:00 +21°C° 0.3 mm 2 mps 749 mmHg 75%
    19:00 +19°C° 0.3 mm 2 mps 750 mmHg 80%
    20:00 +19°C° 0.3 mm 1 mps 750 mmHg 86%
    21:00 +18°C° 0 mm 1 mps 750 mmHg 88%
    22:00 +16°C° 0 mm 2 mps 750 mmHg 90%
    23:00 +15°C° 0 mm 2 mps 751 mmHg 91%

    Tomorrow, 20 July, Saturday

    Time Temperature Precipitation Wind Pressure Humidity
    00:00 +15°C° 0 mm 2 mps 751 mmHg 92%
    01:00 +14°C° 0 mm 2 mps 751 mmHg 92%
    02:00 +14°C° 0 mm 1 mps 751 mmHg 92%
    03:00 +14°C° 0 mm 1 mps 751 mmHg 92%
    04:00 +14°C° 0 mm 1 mps 751 mmHg 91%
    05:00 +13°C° 0 mm 1 mps 752 mmHg 91%
    06:00 +15°C° 0 mm 1 mps 752 mmHg 87%
    07:00 +18°C° 0 mm 1 mps 752 mmHg 82%
    08:00 +20°C° 0 mm 1 mps 752 mmHg 78%
    09:00 +21°C° 0 mm 1 mps 752 mmHg 71%
    10:00 +23°C° 0 mm 1 mps 753 mmHg 64%
    11:00 +25°C° 0 mm 1 mps 753 mmHg 58%
    12:00 +25°C° 0 mm 1 mps 753 mmHg 56%
    13:00 +25°C° 0 mm 2 mps 753 mmHg 54%
    14:00 +26°C° 0 mm 2 mps 752 mmHg 52%
    15:00 +26°C° 0 mm 2 mps 753 mmHg 53%
    16:00 +25°C° 0 mm 1 mps 753 mmHg 55%
    17:00 +25°C° 0 mm 1 mps 753 mmHg 56%
    18:00 +24°C° 0 mm 1 mps 753 mmHg 61%
    19:00 +22°C° 0 mm 1 mps 753 mmHg 67%
    20:00 +20°C° 0 mm 1 mps 753 mmHg 72%
    21:00 +19°C° 0 mm 1 mps 753 mmHg 73%
    22:00 +18°C° 0 mm 1 mps 753 mmHg 75%
    23:00 +16°C° 0 mm 1 mps 753 mmHg 76%

    Day after tomorrow, 21 July, Sunday

    Time Temperature Precipitation Wind Pressure Humidity
    00:00 +16°C° 0 mm 1 mps 753 mmHg 78%
    01:00 +16°C° 0 mm 1 mps 753 mmHg 80%
    02:00 +14°C° 0 mm 0 mps 753 mmHg 81%
    03:00 +15°C° 0 mm 1 mps 754 mmHg 82%
    04:00 +15°C° 0 mm 1 mps 754 mmHg 83%
    05:00 +15°C° 0 mm 1 mps 754 mmHg 84%
    06:00 +18°C° 0 mm 1 mps 754 mmHg 79%
    07:00 +20°C° 0 mm 1 mps 754 mmHg 74%
    08:00 +22°C° 0 mm 1 mps 754 mmHg 69%
    09:00 +23°C° 0 mm 1 mps 754 mmHg 64%
    10:00 +25°C° 0 mm 1 mps 754 mmHg 59%
    11:00 +26°C° 0 mm 1 mps 754 mmHg 54%
    12:00 +27°C° 0 mm 1 mps 753 mmHg 52%
    13:00 +28°C° 0 mm 1 mps 753 mmHg 49%
    14:00 +28°C° 0 mm 1 mps 752 mmHg 46%
    15:00 +28°C° 0 mm 1 mps 752 mmHg 49%
    16:00 +28°C° 0 mm 1 mps 752 mmHg 51%
    17:00 +28°C° 0 mm 1 mps 752 mmHg 53%
    18:00 +26°C° 0.2 mm 1 mps 752 mmHg 62%
    19:00 +24°C° 0.2 mm 2 mps 751 mmHg 71%
    20:00 +21°C° 0.2 mm 2 mps 751 mmHg 79%
    21:00 +21°C° 0.5 mm 2 mps 751 mmHg 83%
    22:00 +20°C° 0.5 mm 3 mps 751 mmHg 88%
    23:00 +19°C° 0.5 mm 3 mps 751 mmHg 92%

    22 July, Monday

    Time Temperature Precipitation Wind Pressure Humidity
    00:00 +19°C° 0.5 mm 3 mps 751 mmHg 93%
    01:00 +19°C° 0.5 mm 2 mps 750 mmHg 95%
    02:00 +19°C° 0.5 mm 2 mps 750 mmHg 96%
    03:00 +18°C° 0.1 mm 2 mps 750 mmHg 96%
    04:00 +18°C° 0.1 mm 2 mps 750 mmHg 96%
    05:00 +17°C° 0.1 mm 2 mps 750 mmHg 96%
    06:00 +18°C° 0 mm 3 mps 750 mmHg 94%
    07:00 +19°C° 0 mm 3 mps 750 mmHg 92%
    08:00 +19°C° 0 mm 3 mps 750 mmHg 91%
    09:00 +21°C° 0 mm 3 mps 751 mmHg 83%
    10:00 +23°C° 0 mm 4 mps 751 mmHg 76%
    11:00 +25°C° 0 mm 4 mps 751 mmHg 68%
    12:00 +26°C° 0 mm 4 mps 751 mmHg 65%
    13:00 +26°C° 0 mm 4 mps 751 mmHg 62%
    14:00 +27°C° 0 mm 5 mps 751 mmHg 59%
    15:00 +26°C° 0.3 mm 4 mps 750 mmHg 64%
    16:00 +26°C° 0.3 mm 4 mps 750 mmHg 68%
    17:00 +25°C° 0.3 mm 4 mps 750 mmHg 73%
    18:00 +23°C° 0.2 mm 4 mps 750 mmHg 78%
    19:00 +21°C° 0.2 mm 3 mps 751 mmHg 84%
    20:00 +20°C° 0.2 mm 3 mps 751 mmHg 89%
    21:00 +19°C° 0 mm 3 mps 751 mmHg 91%
    22:00 +18°C° 0 mm 3 mps 751 mmHg 93%
    23:00 +18°C° 0 mm 3 mps 751 mmHg 94%

    23 July, Tuesday

    Time Temperature Precipitation Wind Pressure Humidity
    00:00 +17°C° 0 mm 3 mps 750 mmHg 95%
    01:00 +17°C° 0 mm 3 mps 750 mmHg 95%
    02:00 +17°C° 0 mm 3 mps 750 mmHg 95%
    03:00 +16°C° 0 mm 3 mps 750 mmHg 96%
    04:00 +15°C° 0 mm 4 mps 750 mmHg 96%
    05:00 +15°C° 0 mm 4 mps 750 mmHg 96%
    06:00 +15°C° 0 mm 4 mps 750 mmHg 94%
    07:00 +17°C° 0 mm 4 mps 750 mmHg 92%
    08:00 +17°C° 0 mm 4 mps 750 mmHg 90%
    09:00 +18°C° 0 mm 4 mps 750 mmHg 87%
    10:00 +19°C° 0 mm 4 mps 750 mmHg 84%
    11:00 +20°C° 0 mm 4 mps 750 mmHg 80%
    12:00 +20°C° 0.1 mm 5 mps 750 mmHg 77%
    13:00 +21°C° 0.1 mm 5 mps 750 mmHg 74%
    14:00 +22°C° 0.1 mm 5 mps 750 mmHg 71%
    15:00 +22°C° 0 mm 5 mps 750 mmHg 71%
    16:00 +22°C° 0 mm 5 mps 750 mmHg 71%
    17:00 +23°C° 0 mm 5 mps 750 mmHg 71%
    18:00 +21°C° 0.4 mm 4 mps 750 mmHg 78%
    19:00 +20°C° 0.4 mm 4 mps 750 mmHg 85%
    20:00 +18°C° 0.4 mm 3 mps 750 mmHg 91%
    21:00 +18°C° 0 mm 3 mps 750 mmHg 92%
    22:00 +17°C° 0 mm 2 mps 750 mmHg 94%
    23:00 +16°C° 0 mm 2 mps 750 mmHg 95%

    24 July, Wednesday

    Time Temperature Precipitation Wind Pressure Humidity
    00:00 +16°C° 0 mm 2 mps 750 mmHg 95%
    01:00 +16°C° 0 mm 2 mps 750 mmHg 95%
    02:00 +16°C° 0 mm 2 mps 750 mmHg 95%
    03:00 +15°C° 0 mm 2 mps 750 mmHg 95%
    04:00 +15°C° 0 mm 2 mps 750 mmHg 95%
    05:00 +15°C° 0 mm 2 mps 749 mmHg 96%
    06:00 +17°C° 0 mm 2 mps 750 mmHg 92%
    07:00 +18°C° 0 mm 3 mps 750 mmHg 89%
    08:00 +19°C° 0 mm 3 mps 750 mmHg 86%
    09:00 +20°C° 0.1 mm 3 mps 750 mmHg 77%
    10:00 +21°C° 0.1 mm 4 mps 750 mmHg 68%
    11:00 +23°C° 0.1 mm 4 mps 749 mmHg 59%
    12:00 +23°C° 0 mm 5 mps 749 mmHg 58%
    13:00 +23°C° 0 mm 5 mps 749 mmHg 56%
    14:00 +24°C° 0 mm 6 mps 749 mmHg 55%
    15:00 +23°C° 0 mm 5 mps 749 mmHg 57%
    16:00 +22°C° 0 mm 5 mps 749 mmHg 60%
    17:00 +22°C° 0 mm 5 mps 749 mmHg 63%
    18:00 +20°C° 0 mm 4 mps 749 mmHg 68%
    19:00 +19°C° 0 mm 4 mps 749 mmHg 74%
    20:00 +17°C° 0 mm 3 mps 749 mmHg 79%
    21:00 +17°C° 0 mm 3 mps 749 mmHg 82%
    22:00 +16°C° 0 mm 2 mps 749 mmHg 84%
    23:00 +15°C° 0 mm 2 mps 749 mmHg 87%
    Show more